Weather History for FVHA - January, 2012

Change the Weather History Date:

Friday, January 6, 2012

  Actual Average Record
Temperature  
Mean Temperature 70 °F -  
Max Temperature 80 °F 79 °F - ()
Min Temperature 60 °F 60 °F - ()
Cooling Degree Days 5    
Growing Degree Days 20 (Base 50)    
Moisture  
Dew Point 57 °F    
Average Humidity 63    
Maximum Humidity 94    
Minimum Humidity 42    
Precipitation  
Precipitation 0.00 in 0.24 in - ()
Sea Level Pressure  
Sea Level Pressure 30.11 in    
Wind  
Wind Speed 6 mph ()    
Max Wind Speed 12 mph    
Max Gust Speed -    
Visibility 9.9 miles    
Events      
T = Trace of Precipitation, MM = Missing Value Source: Averaged Metar Reports

Daily Weather History Graph

Daily Weather History Graph

Search for Another Location

Airport or City:

Trip Planner

Search our weather history database for the weather conditions in past years. The results will help you decide how hot, cold, wet, or windy it might be!

Date:

Astronomy

Jan. 06, 2012 Rise Set
Actual Time 5:26 AM CAT 6:35 PM CAT
Civil Twilight 5:02 AM CAT 6:59 PM CAT
Nautical Twilight 4:33 AM CAT 7:28 PM CAT
Astronomical Twilight 4:04 AM CAT 7:57 PM CAT
Moon 4:14 PM CAT (1/6) 2:45 AM CAT (1/6)
Length of Visible Light 13h 57m
Length of Day
13h 09m
Waxing Gibbous, 92% of the Moon is Illuminated
Jan 6
Waxing Gibbous
Jan 9
Full
Jan 16
Last Quarter
Jan 23
New
Jan 31
First Quarter

Hourly Weather History & Observations

Time (CAT) Temp. Heat Index Dew Point Humidity Pressure Visibility Wind Dir Wind Speed Gust Speed Precip Events Conditions
1:00 AM 64.4 °F - 62.6 °F 94% 30.15 in - East 3.5 mph - N/A   Clear
2:00 AM 64 °F - 63 °F 94%  in 19 mi ESE 2.3 mph - -   Scattered Clouds
5:00 AM 60.8 °F - 59.0 °F 94% 30.12 in - SE 3.5 mph - N/A   Clear
6:00 AM 60.8 °F - 59.0 °F 94% 30.12 in - ESE 4.6 mph - N/A   Clear
7:00 AM 66.2 °F - 62.6 °F 88% 30.15 in - SSE 5.8 mph - N/A   Clear
8:00 AM 69 °F - 62 °F 71%  in 19 mi SSE 8.1 mph - -   Partly Cloudy
8:00 AM 69.8 °F - 60.8 °F 73% - 6.2 mi SSE 8.1 mph - N/A   Mostly Cloudy
9:00 AM 73.4 °F - 59.0 °F 61% 30.18 in 6.2 mi South 11.5 mph - N/A   Scattered Clouds
10:00 AM 77.0 °F - 60.8 °F 57% 30.15 in 6.2 mi South 11.5 mph - N/A   Partly Cloudy
11:00 AM 77.0 °F - 59.0 °F 54% 30.12 in 6.2 mi SSE 11.5 mph - N/A   Partly Cloudy
12:00 PM 78.8 °F - 59.0 °F 51% 30.12 in 6.2 mi South 9.2 mph - N/A   Partly Cloudy
1:00 PM 80.6 °F 80.8 °F 57.2 °F 45% 30.12 in - SSE 10.4 mph - N/A   Clear
2:00 PM 78.8 °F - 55.4 °F 44% 30.09 in - SSE 11.5 mph - N/A   Clear
3:00 PM 80.6 °F 80.5 °F 55.4 °F 42% 30.06 in - SSE 10.4 mph - N/A   Clear
4:00 PM 80.6 °F 80.5 °F 55.4 °F 42% 30.06 in - SSE 9.2 mph - N/A   Clear
5:00 PM 78.8 °F - 55.4 °F 44% 30.04 in - SSE 9.2 mph - N/A   Clear
6:00 PM 77.0 °F - 53.6 °F 44% 30.06 in - SE 8.1 mph - N/A   Clear
7:00 PM 73.4 °F - 51.8 °F 47% 30.09 in - SE 9.2 mph - N/A   Clear
8:00 PM 69.8 °F - 51.8 °F 53% 30.09 in - SE 6.9 mph - N/A   Clear
9:00 PM 68.0 °F - 51.8 °F 56% 30.12 in - SE 6.9 mph - N/A   Clear
10:00 PM 66.2 °F - 53.6 °F 64% 30.15 in - SE 6.9 mph - N/A   Clear
11:00 PM 66.2 °F - 53.6 °F 64% 30.15 in - SE 6.9 mph - N/A   Clear